Starlink 5636

operational
NORAD ID: 55454 Int'l Des: 2023-015 Owner: SPXS Country: US Constellation: starlink
LEOCIRCULAR

About Starlink 5636

Description loading...

Live Position

Loading 3D Globe...

Upcoming Passes

Altitude History

Altitude vs Time

uPlot chart will show altitude changes over time

Two-Line Element Set

1 55454U 23015F 25303.00772989 .00001937 00000-0 15849-3 0 9999
2 55454 43.0008 316.2780 0001112 281.6117 78.4601 15.02522260151095
Epoch: Oct 30, 2025 • Age: 33 hours

Current Status

Altitude 562.2 km
Velocity 7.58 km/s
Sub-Earth Point -15.70°S, 28.56°W
Launch Date Feb 2, 2023
Age 2.7 years
Type internet

Technical Details

Classification Payload
Mass 305.00 kg
Dry Mass 290.00 kg
Total Mass 305.00 kg
Length 0.20 m
Diameter 2.80 m
Span 9.00 m
Shape Box + pan
Manufacturer SPXS
Bus Type Starlink
Phase Status In Orbit
Owner/State SPXS/US

Large Constellations

Loading constellations...